CW7313 Drosia of Attica GR current weather conditions

sailwx.info

Wind from 139

Air temperature 28.3° C
Dewpoint 14.5° C

Last reported at 2020-Aug-13 16:35 UTC.
Time now 2020-Aug-13 17:36 UTC

Location: N 38°07' E 023°55'.
View on Google Maps.

See reports from other nearby stations

  
Tides and Currents Weather Stations Pressure Air Temp Water Temp Dewpoint Dewpoint Depression Visibility Wind Speed Wind Dir Waves Ship Positions
date/time (UTC)wind fromknots sea level pressurealtimeterstation pressurevisibilityair tempwater tempwave heightnotes
2020-Aug-13 16:35 139 28.3
2020-Aug-13 16:05 142 28.9
2020-Aug-13 15:35 168 29.4
2020-Aug-13 15:05 069 30.0
2020-Aug-13 14:36 069 30.0
2020-Aug-13 14:05 146 30.6
2020-Aug-13 13:35 136 30.6
2020-Aug-13 13:05 138 30.6
2020-Aug-13 12:35 118 30.6
2020-Aug-13 12:05 099 30.6
2020-Aug-13 11:35 076 30.6
2020-Aug-13 11:05 152 30.0
2020-Aug-13 10:35 045 30.0
2020-Aug-13 10:05 142 30.0
2020-Aug-13 09:35 112 29.4
2020-Aug-13 09:05 155 28.9
2020-Aug-13 08:35 069 28.3
2020-Aug-13 08:05 115 27.8
2020-Aug-13 07:35 077 27.8
2020-Aug-13 07:05 140 27.2
2020-Aug-13 06:35 101 26.7
2020-Aug-13 06:05 094 26.1
2020-Aug-13 05:36 134 25.6
2020-Aug-13 05:05 132 24.4
2020-Aug-13 04:35 131 22.2
2020-Aug-13 04:05 155 23.3
2020-Aug-13 03:35 155 22.8
2020-Aug-13 03:05 155 22.2
2020-Aug-13 02:35 155 22.2
2020-Aug-13 02:05 155 22.2
2020-Aug-13 01:35 155 22.2
2020-Aug-13 01:05 155 22.2
2020-Aug-13 00:35 155 22.2
2020-Aug-13 00:05 155 22.8
2020-Aug-12 23:35 155 23.3
2020-Aug-12 23:05 155 23.3
2020-Aug-12 22:35 155 23.9
2020-Aug-12 22:05 155 23.3
2020-Aug-12 21:35 155 23.9
2020-Aug-12 21:05 155 23.9
2020-Aug-12 20:35 155 24.4
2020-Aug-12 20:06 155 24.4
2020-Aug-12 19:35 155 24.4
2020-Aug-12 19:05 155 25.0
2020-Aug-12 18:36 155 25.6
2020-Aug-12 18:05 155 25.6
2020-Aug-12 17:35 155 26.7
2020-Aug-12 17:06 155 28.9
2020-Aug-12 16:35 153 29.4
2020-Aug-12 16:05 110 30.6
2020-Aug-12 15:35 114 30.6
2020-Aug-12 15:05 145 31.1
2020-Aug-12 14:35 069 31.1
2020-Aug-12 14:05 125 31.7
2020-Aug-12 13:35 130 31.1
2020-Aug-12 13:05 130 31.7
2020-Aug-12 12:35 132 31.1
2020-Aug-12 12:06 069 31.1
2020-Aug-12 11:35 053 31.1
2020-Aug-12 11:05 159 31.1
2020-Aug-12 10:35 129 31.1
2020-Aug-12 10:05 064 30.6
2020-Aug-12 09:35 132 30.6
2020-Aug-12 09:05 070 30.0
2020-Aug-12 08:35 070 28.9
2020-Aug-12 08:05 092 28.3
2020-Aug-12 07:35 114 28.3
2020-Aug-12 07:05 090 27.8
2020-Aug-12 06:35 145 27.2
2020-Aug-12 06:05 172 26.7
2020-Aug-12 05:35 107 25.6
2020-Aug-12 05:05 080 24.4
2020-Aug-12 04:36 080 21.7
2020-Aug-12 04:05 080 20.6
2020-Aug-12 03:35 080 20.6
2020-Aug-12 03:05 080 20.6
2020-Aug-12 02:35 079 20.6
2020-Aug-12 02:05 080 20.6
2020-Aug-12 01:35 079 21.1
2020-Aug-12 01:05 080 21.1
2020-Aug-12 00:36 080 21.1
2020-Aug-12 00:05 080 21.7
2020-Aug-11 23:35 080 21.7
2020-Aug-11 23:05 080 22.2
2020-Aug-11 22:35 080 22.2
2020-Aug-11 22:05 080 22.2
2020-Aug-11 21:35 080 22.8
2020-Aug-11 21:05 079 22.8
2020-Aug-11 20:35 080 22.8
2020-Aug-11 20:05 080 22.8
2020-Aug-11 19:36 080 22.8
2020-Aug-11 19:05 079 23.3
2020-Aug-11 18:35 080 23.9
2020-Aug-11 18:05 080 24.4
2020-Aug-11 17:35 080 25.6
2020-Aug-11 17:05 080 27.2